SCP
0 0 0 0 0 0 0 0 0 0 0 0 0 0 0 0 0 0 0 0 0 0 0 -0 0 0 0 0 0 0 0 0 0 0 0 0 0 0 0 0 0 0 0 -0 -0 -0 0 0 -0 0 0 0 0 -0
0 0 0 0 0 0 0 0 0 0 0 0 0 0 0 0 0 0 0 0 0 0 0 0 0 0 -0 -0 0 0 0 0 0 0 0 0 0 0 0 0 0 0 0 -0 0 0 -0 -0 0 0 0 0 0 -0
0 0 0 0 0 0 0 0 0 0 0 0 0 0 0 0 0 0 0 0 0 0 0 0 0 0 0 0 0 0 0 0 0 0 0 0 0 0 0 0 0 0 0 -0 -0 0 -0 -0 0 -0 0 0 -0 -0
0 0 0 0 0 0 0 0 0 0 0 0 0 0 0 0 0 0 0 0 0 0 0 0 0 0 0 0 0 0 0 0 0 0 0 0 0 0 0 0 0 0 -0 -0 -0 -0 -0 -0 -0 -0 -0 0 -0 -0
0 0 0 0 0 0 0 0 0 0 0 0 0 0 0 0 0 0 0 0 0 0 0 0 0 0 0 0 0 0 0 0 0 0 0 0 0 0 0 0 0 0 -0 -0 -0 -0 -0 0 -0 -0 0 -0 -0 -0
0 0 0 0 0 0 0 0 0 0 0 0 0 0 0 0 0 0 0 0 0 0 0 0 0 0 0 0 0 0 0 0 0 0 0 0 0 0 0 0 0 0 0 0 -0 -0 -0 -0 -0 -0 0 -0 -0 -0
0 0 0 0 0 0 0 0 0 0 0 0 0 0 0 0 0 0 0 0 0 0 0 0 0 0 0 0 0 0 0 0 0 0 0 0 0 0 0 0 0 -0 -0 0 -0 -0 -0 -0 -0 -0 -0 -0 -0 0
0 0 0 0 0 0 0 0 0 0 0 0 0 0 0 0 0 0 0 0 0 0 0 0 0 0 0 0 0 0 0 0 0 0 0 0 0 0 0 -0 0 0 0 0 -0 -0 -0 -0 -0 0 0 0 0 -0
0 0 0 0 0 0 0 0 0 0 0 0 0 0 0 0 0 0 0 0 0 0 0 0 0 0 0 0 0 0 0 0 0 0 0 0 0 0 0 0 0 0 -0 -0 -0 -0 -0 -0 -0 -0 -0 -0 -0 0
0 0 0 0 0 0 0 0 0 0 0 0 0 0 0 0 0 0 0 0 0 0 0 0 0 0 0 0 0 0 0 0 0 0 0 0 0 0 0 0 0 0 0 -0 -0 -0 -0 -0 -0 -0 0 0 0 0
0 0 0 0 0 0 0 0 0 0 -0 0 0 0 0 0 0 0 0 0 0 0 0 0 0 0 0 0 0 0 0 0 0 0 0 0 0 0 0 0 0 0 0 -0 -0 -0 -0 -0 0 -0 0 -0 0 -0
0 0 0 0 0 0 0 0 0 0 0 0 0 0 0 0 0 0 0 0 0 0 0 0 0 0 0 0 0 0 0 0 0 -0 -0 0 0 -0 0 0 -0 0 0 -0 -0 -0 -0 -0 0 -0 -0 0 0 -0
0 0 0 0 0 0 0 0 0 0 0 0 0 0 0 0 0 0 0 0 0 0 0 0 0 0 0 0 0 0 0 0 -0 -0 -0 0 0 0 0 0 -0 0 0 -0 -0 -0 0 0 0 -0 0 0 0 0
0 0 0 0 0 0 0 0 0 0 0 0 0 0 0 0 0 0 0 0 0 0 0 0 0 0 0 0 0 0 0 -0 0 0 -0 -0 0 0 0 -0 -0 0 0 -0 -0 -0 0 0 -0 -0 -0 0 0 0
0 0 0 0 0 0 0 0 0 0 0 0 0 0 0 0 0 0 0 0 0 0 0 0 0 0 0 0 0 0 0 0 0 -0 -0 -0 -0 -0 -0 -0 -0 0 -0 -0 -0 0 0 0 -0 0 -0 0 0 0
0 0 0 0 0 0 0 0 0 0 0 0 0 0 0 0 0 0 0 0 0 0 0 0 0 0 0 0 0 0 0 0 0 -0 -0 -0 -0 -0 -0 0 -0 0 -0 -0 -0 0 0 0 -0 -0 0 0 0 0
0 0 0 0 0 0 0 0 0 0 0 0 0 0 0 0 0 0 0 0 0 0 0 0 0 0 0 0 0 0 0 0 0 -0 -0 -0 0 0 -0 0 -0 0 0 -0 -0 0 0 0 0 0 -0 0 0 0
0 0 0 0 0 0 0 0 0 0 0 0 0 0 0 0 0 0 0 0 0 0 0 0 0 0 0 0 0 0 0 0 0 0 -0 -0 -0 0 0 0 -0 -0 0 0 -0 -0 0 -0 0 -0 0 0 0 0
0 0 0 0 0 0 0 0 0 0 0 0 0 0 0 0 0 0 0 0 0 0 0 0 0 0 0 0 0 0 0 -0 -0 -0 -0 -0 -0 -0 -0 0 0 -0 -0 0 0 -0 -0 0 -0 0 -0 0 0 -0
0 0 0 0 0 0 0 0 0 0 0 0 0 0 0 0 0 0 0 0 0 0 0 0 0 0 0 0 0 0 0 0 0 -0 -0 -0 -0 0 -0 -0 0 0 0 0 0 0 -0 -0 -0 -0 -0 -0 -0 0
0 0 0 0 0 0 0 0 0 0 0 0 0 0 0 0 0 0 -0 -0 0 -0 0 0 0 0 0 0 0 0 0 0 0 0 0 0 0 -0 0 -0 0 0 0 0 0 0 0 -0 -0 -0 -0 -0 -0 -0
0 0 0 0 0 0 0 0 0 0 0 0 0 0 -0 -0 0 -0 -0 0 -0 0 -0 0 0 0 -0 -0 0 -0 -0 -0 -0 0 0 0 0 0 0 -0 -0 0 0 0 0 0 0 0 0 -0 -0 -0 -0 -0
-0 0 0 0 0 0 0 0 0 0 0 -0 0 -0 -0 -0 -0 -0 0 -0 0 -0 -0 -0 0 0 0 0 0 0 -0 0 0 0 0 0 0 0 0 0 -0 -0 0 0 0 0 0 0 0 0 0 0 -0 -0
0 0 0 0 0 0 0 0 0 0 -0 0 -0 -0 -0 0 -0 -0 -0 0 0 -0 0 -0 -0 -0 0 0 0 0 0 0 0 0 0 0 0 0 0 0 -0 -0 -0 -0 0 0 0 0 0 0 0 0 0 -0
0 0 0 0 0 0 0 0 0 0 -0 -0 -0 -0 0 -0 -0 -0 -0 -0 0 -0 0 0 0 -0 -0 0 0 0 0 0 0 0 0 0 0 0 0 0 -0 -0 -0 -0 -0 0 0 0 0 0 0 0 0 -0
-0 -0 -0 0 0 0 0 0 -0 0 -0 -0 -0 -0 0 0 0 0 0 -0 0 0 0 0 0 0 0 0 0 0 0 0 0 0 0 0 0 0 0 -0 -0 -0 -0 -0 -0 0 0 0 0 0 0 0 0 -0
0 -0 -0 0 0 0 0 -0 -0 -0 -0 -0 -0 -0 -0 0 0 0 -0 -0 -0 -0 -0 -0 -0 -0 0 0 0 0 0 0 0 0 0 0 0 0 -0 -0 0 -0 -0 -0 0 0 0 0 0 0 0 0 0 0
0 0 0 -0 0 0 0 0 0 0 0 0 0 0 0 0 0 0 0 0 0 0 0 0 0 0 0 0 0 0 0 0 0 0 0 0 0 0 0 -0 0 -0 -0 -0 -0 -0 -0 0 0 0 0 0 0 0
0 0 0 0 0 0 0 0 0 0 0 0 0 0 0 0 0 0 0 0 0 0 0 0 0 0 0 0 0 0 0 0 0 0 0 0 -0 -0 -0 -0 -0 -0 0 -0 -0 0 0 -0 -0 0 0 0 0 0
0 0 0 0 0 0 0 0 0 0 0 0 0 0 0 0 0 0 0 0 0 0 0 0 0 0 0 0 0 0 0 0 -0 0 0 0 0 0 0 -0 0 -0 0 0 -0 -0 0 0 0 0 0 0 0 0
0 0 0 0 0 0 0 0 0 0 0 0 0 0 0 0 0 0 0 0 0 0 0 0 0 0 0 0 0 0 0 0 0 0 0 0 0 0 0 0 0 0 0 0 0 0 0 0 0 0 0 0 0 0
0 0 0 0 0 0 0 0 0 0 0 0 0 0 0 0 0 0 0 0 0 0 0 0 0 0 0 0 0 0 0 0 0 0 0 0 0 0 0 0 0 0 0 0 0 0 0 0 0 0 0 0 0 0
0 0 0 0 0 0 0 0 0 0 0 0 0 0 0 0 0 0 0 0 0 0 0 0 0 0 0 0 0 0 0 0 0 0 0 0 0 0 0 0 0 0 0 0 0 0 0 0 0 0 0 0 0 0
Wind_Speed_500mb
52 50 40 39 34 33 30 32 35 37 36 36 36 36 33 32 31 26 19 19 18 34 67 46 31 35 37 36 22 26 23 4 21 9 12 14 14 16 24 27 26 16 13 20 16 28 17 59 34 12 15 45 67 78
55 44 38 35 36 30 30 32 34 35 34 35 35 36 34 32 31 28 15 13 28 29 54 67 70 58 54 56 50 28 22 25 13 7 8 7 20 21 25 17 23 14 17 14 14 20 55 54 45 35 52 60 72 88
38 36 34 40 36 31 32 33 33 32 33 35 34 34 34 33 29 28 28 23 32 38 61 33 32 8 8 21 26 41 34 23 15 17 13 7 11 10 11 21 33 29 40 18 35 26 45 58 49 64 60 66 84 87
37 39 38 37 33 33 32 33 33 32 32 34 35 35 34 35 32 31 28 25 28 23 18 4 8 28 50 50 48 46 44 32 29 27 12 8 7 20 16 32 30 38 36 25 37 40 44 49 61 63 74 74 81 84
39 38 38 37 34 32 32 33 34 34 34 35 36 36 36 37 38 37 33 23 26 25 14 41 61 21 11 19 17 28 40 44 37 13 10 8 14 21 25 18 23 20 23 15 17 41 16 45 62 69 66 76 80 77
41 39 37 34 31 31 32 33 33 36 37 37 38 36 35 35 36 28 7 12 12 14 16 11 31 23 10 16 20 26 32 30 24 9 11 15 38 28 8 10 22 36 37 29 14 36 45 52 57 55 70 74 75 66
38 36 33 31 30 31 31 31 33 36 38 39 38 36 35 33 34 16 13 7 16 12 15 17 14 8 17 22 28 26 23 19 18 9 13 21 47 26 5 12 17 43 29 32 29 44 41 44 54 63 64 68 66 59
34 31 30 29 29 29 30 30 33 36 38 37 36 33 32 34 34 29 16 22 27 22 13 9 12 28 1 22 19 14 15 17 16 14 13 26 14 12 9 22 13 25 34 34 42 37 38 46 47 63 62 68 69 66
30 29 28 28 26 27 29 31 32 35 37 35 32 28 24 11 16 13 17 12 12 18 10 11 11 17 19 32 31 26 16 10 18 12 11 8 7 10 10 20 29 35 36 41 43 39 40 42 52 64 65 69 68 62
29 27 27 26 25 26 26 28 32 33 30 25 17 10 10 9 15 13 12 9 11 14 15 26 36 21 29 26 14 18 11 6 7 16 13 10 7 28 21 23 27 32 33 39 43 47 47 47 55 62 63 63 60 50
27 27 26 25 24 23 22 24 25 25 15 12 9 8 10 20 10 13 8 10 13 8 13 17 21 18 24 15 6 10 10 9 7 3 6 8 6 26 29 24 29 27 28 30 29 32 33 35 45 53 60 59 55 45
26 25 24 23 23 21 18 18 18 11 14 14 20 23 16 7 9 8 8 10 9 6 7 15 18 21 15 3 5 10 7 8 12 6 7 6 10 42 38 30 31 25 26 29 29 33 33 34 37 43 50 51 51 49
24 23 23 23 21 17 15 14 18 16 15 11 8 7 7 9 9 12 17 12 8 9 10 11 15 14 7 6 10 7 9 12 11 1 6 4 32 38 35 34 30 24 24 28 29 31 29 33 35 39 44 45 44 52
27 24 21 20 19 17 15 15 15 10 4 9 9 8 12 13 12 15 18 4 4 9 10 14 17 10 13 11 12 11 13 9 1 5 5 5 34 32 32 28 28 26 26 26 28 29 27 33 36 37 37 40 41 45
25 26 29 29 24 22 18 16 15 7 8 10 11 10 15 26 23 14 8 9 13 8 16 17 22 22 14 10 8 12 9 1 6 2 5 11 26 20 24 22 25 26 25 23 24 26 22 27 33 38 37 35 36 39
19 19 22 22 23 21 19 19 17 16 8 12 16 18 26 22 25 24 22 24 20 10 14 21 11 9 11 9 11 10 14 7 4 6 8 14 23 15 18 18 20 20 20 16 20 20 21 22 29 31 36 41 34 37
22 14 20 16 15 18 19 15 13 11 12 11 17 28 37 40 35 29 19 19 15 14 16 15 8 12 10 11 18 10 9 11 10 10 8 16 20 16 13 14 16 16 17 11 15 20 17 20 22 23 32 36 38 34
22 24 23 16 10 13 16 17 9 12 14 25 32 35 37 41 39 36 31 28 25 28 31 25 26 25 23 25 20 23 28 8 2 6 10 16 19 12 8 11 12 13 13 12 11 15 15 16 15 20 22 23 28 34
21 24 17 17 20 13 7 11 16 12 23 35 36 41 44 43 38 39 38 36 34 34 30 19 13 16 21 37 39 45 39 13 13 11 12 15 17 11 7 7 7 8 10 10 7 7 9 12 12 14 16 22 23 23
17 12 10 12 25 11 8 11 13 14 15 20 30 41 43 33 35 35 35 35 38 37 22 14 25 44 42 41 33 32 25 23 19 19 17 13 11 11 10 7 8 3 4 3 6 9 7 8 8 8 10 17 20 23
19 17 18 21 21 21 10 11 13 19 22 33 36 33 29 35 38 41 43 43 47 52 41 53 60 58 52 49 46 41 35 26 16 21 24 23 16 14 14 11 7 4 4 5 6 5 10 7 3 6 4 11 16 20
15 18 21 20 13 10 14 21 17 14 16 35 43 42 36 36 41 41 41 45 53 56 58 58 57 53 52 48 44 40 43 42 40 41 37 33 28 18 13 19 15 9 4 2 5 8 9 10 10 8 4 4 11 10
11 18 12 14 12 11 14 18 13 14 10 14 22 10 16 29 37 37 40 42 46 46 46 50 49 44 49 46 47 44 39 39 40 39 35 32 28 24 18 17 21 14 10 6 2 4 6 6 13 14 13 10 6 7
32 15 11 12 23 12 15 15 15 14 17 27 22 32 34 43 46 42 32 44 45 43 43 36 33 37 37 37 41 42 39 38 37 35 32 29 29 25 22 20 20 16 15 16 11 8 4 6 5 5 7 9 10 9
15 16 13 14 18 14 13 23 32 19 18 25 32 28 25 34 23 29 33 48 46 33 20 18 20 29 36 35 38 33 33 37 36 35 31 31 27 20 18 20 19 18 15 18 15 13 11 10 4 5 3 3 7 10
13 26 25 16 16 14 11 17 23 31 28 29 19 22 19 10 14 13 12 13 7 9 7 4 10 24 29 37 40 27 27 33 34 32 28 28 28 22 20 26 25 18 15 18 17 16 17 15 13 12 12 8 8 6
11 16 22 27 13 11 14 24 36 21 20 19 16 10 7 8 10 5 8 9 16 30 69 57 46 46 36 29 24 19 22 30 34 28 23 25 25 27 20 18 14 12 14 15 16 15 14 14 12 12 13 15 14 11
19 13 23 33 33 28 15 12 9 10 8 9 3 7 7 8 6 12 28 48 82 71 48 27 26 35 31 25 20 23 24 24 26 23 21 22 25 24 19 16 14 13 9 10 12 13 12 10 12 13 11 13 17 17
16 17 17 23 17 16 17 15 12 13 12 9 7 7 10 23 37 54 87 63 58 42 10 21 29 27 17 13 24 25 25 28 29 30 30 26 26 24 22 19 14 14 10 9 16 16 14 12 10 9 8 9 8 10
22 25 15 14 11 12 22 27 21 25 28 33 34 39 55 66 72 39 42 26 11 16 22 24 25 26 25 26 26 23 29 27 25 24 26 23 22 24 22 19 16 13 11 11 10 16 26 25 24 20 14 11 11 11
9 10 9 11 11 25 37 37 32 36 36 37 42 51 65 43 27 46 49 44 30 24 24 31 34 30 11 30 31 28 24 19 17 20 24 20 16 18 17 16 14 11 10 10 9 10 12 13 16 18 18 12 12 12
16 21 10 8 10 6 7 10 6 9 10 7 7 5 7 11 8 35 50 44 43 41 37 32 31 34 29 27 29 32 30 25 23 24 19 14 12 12 11 11 11 11 9 8 7 7 7 10 12 17 12 10 8 8
15 18 18 12 11 16 12 13 13 4 5 13 20 26 26 16 14 39 34 31 24 32 37 32 28 34 32 31 31 31 27 22 16 12 10 11 12 15 10 7 8 9 9 7 5 3 4 6 4 7 11 14 16 15
Wind_Direction_500mb
278 277 270 277 282 286 296 309 313 318 322 323 324 325 328 330 332 343 307 302 272 277 289 284 285 283 287 278 281 315 329 70 280 285 325 330 321 317 318 311 299 293 289 293 304 302 288 343 343 327 290 315 314 312
268 263 261 265 270 280 294 300 306 311 317 319 322 322 323 325 324 320 317 304 290 269 270 287 285 276 264 260 273 275 264 308 298 311 320 319 302 302 285 293 304 284 320 293 288 286 300 319 336 337 328 317 311 308
258 254 268 270 272 281 287 294 299 306 311 314 316 316 318 318 321 314 305 313 301 285 301 284 295 228 256 267 257 252 259 258 240 273 317 315 275 302 278 293 298 293 301 294 305 299 312 328 334 326 322 317 312 311
253 260 263 263 267 272 281 288 293 300 306 309 311 313 313 314 315 313 299 300 290 294 284 326 321 286 288 272 256 247 251 251 256 277 263 253 261 269 277 298 296 291 293 277 292 308 328 324 325 325 326 321 321 323
257 260 258 258 261 269 278 284 293 300 305 309 310 311 312 311 310 310 297 281 268 251 295 300 303 319 264 290 270 220 233 247 254 255 227 243 264 278 277 281 267 293 317 315 307 338 321 310 321 329 324 324 326 326
256 252 252 253 259 267 274 283 294 301 306 308 305 305 304 302 306 330 303 215 234 261 295 306 311 291 279 265 266 252 247 245 226 234 239 242 252 263 274 276 288 318 333 339 305 323 314 317 321 327 328 330 333 333
244 243 245 251 258 266 276 286 295 301 306 306 303 300 298 296 295 261 286 241 202 301 286 288 285 193 283 286 270 249 223 209 217 237 234 253 267 251 247 259 305 308 302 340 328 339 322 333 328 328 338 342 341 348
237 239 244 251 259 268 278 288 297 302 307 304 301 299 294 290 289 286 278 269 244 255 251 276 281 280 229 311 325 266 226 199 224 234 240 258 262 201 252 279 294 349 340 339 340 337 325 329 330 341 347 352 348 354
234 238 243 249 257 269 281 292 301 309 311 309 305 299 293 288 245 248 257 230 231 234 268 240 274 302 347 320 304 288 180 216 225 211 239 230 231 227 274 353 9 352 352 341 339 335 338 341 338 347 352 355 349 352
230 234 241 249 259 270 283 297 310 314 315 318 317 265 227 177 260 292 248 221 208 216 235 262 275 274 315 318 309 318 253 246 238 216 215 204 213 17 12 21 352 352 350 345 345 342 344 341 342 347 350 351 352 359
232 237 243 250 258 269 284 298 310 325 5 329 284 269 305 303 286 242 243 206 195 219 219 248 257 269 278 286 287 275 310 283 267 174 237 194 64 344 359 2 350 359 349 348 343 339 342 337 343 347 352 360 8 13
235 240 245 251 257 266 279 296 314 347 303 269 281 287 291 249 237 231 238 238 211 261 210 240 264 251 283 229 245 253 263 278 260 294 259 49 358 346 349 345 349 357 351 349 346 347 348 347 355 355 2 11 23 30
237 241 245 250 255 255 262 284 310 307 314 279 271 258 222 215 235 226 216 199 199 217 216 244 280 296 197 188 237 257 252 241 276 325 38 28 333 335 337 326 344 6 358 348 346 354 353 358 9 4 12 21 28 40
231 235 241 242 237 239 247 272 296 311 272 243 235 249 230 201 231 222 251 290 213 236 262 299 289 280 291 201 229 244 227 255 42 51 18 350 338 330 330 329 348 5 1 353 349 357 356 7 17 7 13 24 31 35
234 235 234 234 238 237 249 266 274 256 262 250 227 239 231 249 284 279 266 258 228 262 287 301 282 245 268 258 226 276 258 45 43 112 354 332 335 341 337 343 354 4 359 355 355 359 2 12 25 20 14 26 33 35
220 234 248 234 233 233 256 264 247 223 240 239 237 249 269 279 269 251 223 232 247 266 286 264 251 273 261 235 249 268 306 344 34 49 352 324 344 353 350 350 354 7 6 359 1 1 3 15 27 27 22 31 39 39
215 226 245 237 220 246 239 221 223 221 238 237 248 250 264 272 283 289 278 258 264 268 265 277 264 247 278 260 266 287 288 328 345 31 1 346 337 348 351 348 353 5 11 7 359 6 4 2 18 32 34 22 36 45
211 233 241 234 220 214 213 211 235 243 241 250 259 266 271 270 274 272 270 266 253 250 256 255 266 269 267 273 277 278 303 348 295 324 346 353 344 346 350 342 348 1 16 25 354 3 8 11 15 37 43 48 32 32
220 230 235 227 199 197 223 229 223 258 244 261 269 269 267 267 268 269 270 266 259 256 261 258 255 249 251 257 272 284 290 296 263 227 297 328 331 339 328 323 330 355 10 29 29 25 23 34 34 46 53 48 50 37
224 230 237 192 185 208 241 239 220 252 269 273 274 265 264 267 269 264 256 247 241 233 232 228 239 253 275 287 297 299 288 289 307 281 270 317 325 336 314 271 292 357 8 353 73 52 29 38 55 35 68 64 43 53
227 230 217 182 204 220 259 259 241 256 274 270 276 293 282 280 272 260 253 248 247 246 237 243 255 262 269 273 273 277 275 280 281 270 287 302 317 308 301 253 247 267 317 12 26 39 71 44 92 91 85 76 67 58
196 208 198 200 220 232 248 237 243 275 276 269 278 274 268 263 263 262 260 251 247 249 250 254 256 258 262 264 265 261 260 261 264 265 268 271 278 271 261 243 217 216 227 330 37 59 69 79 68 78 112 115 107 62
199 189 202 191 210 237 252 227 243 240 246 269 256 263 266 269 265 266 259 260 264 264 262 257 256 258 258 261 258 259 255 251 250 249 252 251 248 245 243 226 229 200 195 177 145 93 103 102 101 96 69 88 125 104
203 190 207 217 210 247 216 210 227 255 260 261 275 280 280 280 280 269 268 267 266 268 260 254 246 255 260 249 248 248 245 239 239 239 237 233 232 229 220 216 222 204 193 179 181 170 153 138 117 109 133 115 112 116
184 209 211 224 217 234 239 236 234 231 247 265 275 267 272 274 270 270 272 275 274 258 221 241 289 269 268 271 261 238 232 227 224 226 221 218 224 223 221 233 212 214 192 185 182 184 184 185 167 172 138 118 136 142
214 203 199 217 206 218 234 263 257 247 242 260 269 272 292 299 274 252 263 342 7 37 41 42 312 299 279 242 258 228 216 212 208 211 209 208 209 209 207 209 201 181 194 194 190 191 189 191 198 202 207 212 214 186
235 218 205 224 224 224 256 259 272 274 269 269 275 298 296 256 260 256 270 295 280 284 305 302 279 271 248 238 245 203 198 193 194 197 199 199 202 203 196 231 179 185 183 191 197 198 202 198 201 209 211 215 221 224
239 264 238 224 217 228 246 259 261 261 259 264 254 218 243 240 267 307 293 286 293 301 303 285 232 205 212 237 218 185 182 186 193 199 200 197 203 203 194 191 179 179 177 188 198 202 207 206 203 215 215 212 213 218
235 239 257 256 222 218 219 216 240 247 260 259 250 253 252 261 275 285 294 303 310 311 258 174 177 183 193 190 177 185 188 184 179 184 195 186 185 188 186 190 188 188 195 203 202 203 206 220 223 223 224 234 233 229
244 233 242 247 229 235 234 218 238 245 247 252 261 270 277 282 302 326 335 9 86 111 140 150 154 157 153 154 154 163 166 168 171 182 186 199 186 176 178 182 185 192 200 213 221 229 227 226 236 232 227 235 228 231
246 220 230 234 258 253 253 253 257 257 263 264 263 257 265 281 329 22 41 54 83 105 112 121 130 141 120 125 134 139 133 126 105 153 140 144 139 144 160 171 179 188 199 218 226 241 254 235 236 224 220 224 243 235
208 207 212 223 244 248 167 188 202 230 279 240 270 312 346 194 54 22 36 53 69 61 61 75 84 89 100 105 98 107 115 116 115 114 110 119 133 142 147 168 176 181 193 210 226 255 261 248 233 196 204 229 225 238
196 198 224 257 205 177 181 189 206 203 26 27 31 25 32 33 32 16 22 41 67 85 77 72 79 90 90 96 99 97 99 102 109 123 141 163 173 155 137 165 172 172 177 180 176 181 168 168 181 180 187 191 193 187
Wind_Speed_850mb
52 50 40 39 34 33 30 32 35 37 36 36 36 36 33 32 31 26 19 19 18 34 67 46 31 35 37 36 22 26 23 4 21 9 12 14 14 16 24 27 26 16 13 20 16 28 17 59 34 12 15 45 67 78
55 44 38 35 36 30 30 32 34 35 34 35 35 36 34 32 31 28 15 13 28 29 54 67 70 58 54 56 50 28 22 25 13 7 8 7 20 21 25 17 23 14 17 14 14 20 55 54 45 35 52 60 72 88
38 36 34 40 36 31 32 33 33 32 33 35 34 34 34 33 29 28 28 23 32 38 61 33 32 8 8 21 26 41 34 23 15 17 13 7 11 10 11 21 33 29 40 18 35 26 45 58 49 64 60 66 84 87
37 39 38 37 33 33 32 33 33 32 32 34 35 35 34 35 32 31 28 25 28 23 18 4 8 28 50 50 48 46 44 32 29 27 12 8 7 20 16 32 30 38 36 25 37 40 44 49 61 63 74 74 81 84
39 38 38 37 34 32 32 33 34 34 34 35 36 36 36 37 38 37 33 23 26 25 14 41 61 21 11 19 17 28 40 44 37 13 10 8 14 21 25 18 23 20 23 15 17 41 16 45 62 69 66 76 80 77
41 39 37 34 31 31 32 33 33 36 37 37 38 36 35 35 36 28 7 12 12 14 16 11 31 23 10 16 20 26 32 30 24 9 11 15 38 28 8 10 22 36 37 29 14 36 45 52 57 55 70 74 75 66
38 36 33 31 30 31 31 31 33 36 38 39 38 36 35 33 34 16 13 7 16 12 15 17 14 8 17 22 28 26 23 19 18 9 13 21 47 26 5 12 17 43 29 32 29 44 41 44 54 63 64 68 66 59
34 31 30 29 29 29 30 30 33 36 38 37 36 33 32 34 34 29 16 22 27 22 13 9 12 28 1 22 19 14 15 17 16 14 13 26 14 12 9 22 13 25 34 34 42 37 38 46 47 63 62 68 69 66
30 29 28 28 26 27 29 31 32 35 37 35 32 28 24 11 16 13 17 12 12 18 10 11 11 17 19 32 31 26 16 10 18 12 11 8 7 10 10 20 29 35 36 41 43 39 40 42 52 64 65 69 68 62
29 27 27 26 25 26 26 28 32 33 30 25 17 10 10 9 15 13 12 9 11 14 15 26 36 21 29 26 14 18 11 6 7 16 13 10 7 28 21 23 27 32 33 39 43 47 47 47 55 62 63 63 60 50
27 27 26 25 24 23 22 24 25 25 15 12 9 8 10 20 10 13 8 10 13 8 13 17 21 18 24 15 6 10 10 9 7 3 6 8 6 26 29 24 29 27 28 30 29 32 33 35 45 53 60 59 55 45
26 25 24 23 23 21 18 18 18 11 14 14 20 23 16 7 9 8 8 10 9 6 7 15 18 21 15 3 5 10 7 8 12 6 7 6 10 42 38 30 31 25 26 29 29 33 33 34 37 43 50 51 51 49
24 23 23 23 21 17 15 14 18 16 15 11 8 7 7 9 9 12 17 12 8 9 10 11 15 14 7 6 10 7 9 12 11 1 6 4 32 38 35 34 30 24 24 28 29 31 29 33 35 39 44 45 44 52
27 24 21 20 19 17 15 15 15 10 4 9 9 8 12 13 12 15 18 4 4 9 10 14 17 10 13 11 12 11 13 9 1 5 5 5 34 32 32 28 28 26 26 26 28 29 27 33 36 37 37 40 41 45
25 26 29 29 24 22 18 16 15 7 8 10 11 10 15 26 23 14 8 9 13 8 16 17 22 22 14 10 8 12 9 1 6 2 5 11 26 20 24 22 25 26 25 23 24 26 22 27 33 38 37 35 36 39
19 19 22 22 23 21 19 19 17 16 8 12 16 18 26 22 25 24 22 24 20 10 14 21 11 9 11 9 11 10 14 7 4 6 8 14 23 15 18 18 20 20 20 16 20 20 21 22 29 31 36 41 34 37
22 14 20 16 15 18 19 15 13 11 12 11 17 28 37 40 35 29 19 19 15 14 16 15 8 12 10 11 18 10 9 11 10 10 8 16 20 16 13 14 16 16 17 11 15 20 17 20 22 23 32 36 38 34
22 24 23 16 10 13 16 17 9 12 14 25 32 35 37 41 39 36 31 28 25 28 31 25 26 25 23 25 20 23 28 8 2 6 10 16 19 12 8 11 12 13 13 12 11 15 15 16 15 20 22 23 28 34
21 24 17 17 20 13 7 11 16 12 23 35 36 41 44 43 38 39 38 36 34 34 30 19 13 16 21 37 39 45 39 13 13 11 12 15 17 11 7 7 7 8 10 10 7 7 9 12 12 14 16 22 23 23
17 12 10 12 25 11 8 11 13 14 15 20 30 41 43 33 35 35 35 35 38 37 22 14 25 44 42 41 33 32 25 23 19 19 17 13 11 11 10 7 8 3 4 3 6 9 7 8 8 8 10 17 20 23
19 17 18 21 21 21 10 11 13 19 22 33 36 33 29 35 38 41 43 43 47 52 41 53 60 58 52 49 46 41 35 26 16 21 24 23 16 14 14 11 7 4 4 5 6 5 10 7 3 6 4 11 16 20
15 18 21 20 13 10 14 21 17 14 16 35 43 42 36 36 41 41 41 45 53 56 58 58 57 53 52 48 44 40 43 42 40 41 37 33 28 18 13 19 15 9 4 2 5 8 9 10 10 8 4 4 11 10
11 18 12 14 12 11 14 18 13 14 10 14 22 10 16 29 37 37 40 42 46 46 46 50 49 44 49 46 47 44 39 39 40 39 35 32 28 24 18 17 21 14 10 6 2 4 6 6 13 14 13 10 6 7
32 15 11 12 23 12 15 15 15 14 17 27 22 32 34 43 46 42 32 44 45 43 43 36 33 37 37 37 41 42 39 38 37 35 32 29 29 25 22 20 20 16 15 16 11 8 4 6 5 5 7 9 10 9
15 16 13 14 18 14 13 23 32 19 18 25 32 28 25 34 23 29 33 48 46 33 20 18 20 29 36 35 38 33 33 37 36 35 31 31 27 20 18 20 19 18 15 18 15 13 11 10 4 5 3 3 7 10
13 26 25 16 16 14 11 17 23 31 28 29 19 22 19 10 14 13 12 13 7 9 7 4 10 24 29 37 40 27 27 33 34 32 28 28 28 22 20 26 25 18 15 18 17 16 17 15 13 12 12 8 8 6
11 16 22 27 13 11 14 24 36 21 20 19 16 10 7 8 10 5 8 9 16 30 69 57 46 46 36 29 24 19 22 30 34 28 23 25 25 27 20 18 14 12 14 15 16 15 14 14 12 12 13 15 14 11
19 13 23 33 33 28 15 12 9 10 8 9 3 7 7 8 6 12 28 48 82 71 48 27 26 35 31 25 20 23 24 24 26 23 21 22 25 24 19 16 14 13 9 10 12 13 12 10 12 13 11 13 17 17
16 17 17 23 17 16 17 15 12 13 12 9 7 7 10 23 37 54 87 63 58 42 10 21 29 27 17 13 24 25 25 28 29 30 30 26 26 24 22 19 14 14 10 9 16 16 14 12 10 9 8 9 8 10
22 25 15 14 11 12 22 27 21 25 28 33 34 39 55 66 72 39 42 26 11 16 22 24 25 26 25 26 26 23 29 27 25 24 26 23 22 24 22 19 16 13 11 11 10 16 26 25 24 20 14 11 11 11
9 10 9 11 11 25 37 37 32 36 36 37 42 51 65 43 27 46 49 44 30 24 24 31 34 30 11 30 31 28 24 19 17 20 24 20 16 18 17 16 14 11 10 10 9 10 12 13 16 18 18 12 12 12
16 21 10 8 10 6 7 10 6 9 10 7 7 5 7 11 8 35 50 44 43 41 37 32 31 34 29 27 29 32 30 25 23 24 19 14 12 12 11 11 11 11 9 8 7 7 7 10 12 17 12 10 8 8
15 18 18 12 11 16 12 13 13 4 5 13 20 26 26 16 14 39 34 31 24 32 37 32 28 34 32 31 31 31 27 22 16 12 10 11 12 15 10 7 8 9 9 7 5 3 4 6 4 7 11 14 16 15
Wind_Direction_850mb
278 277 270 277 282 286 296 309 313 318 322 323 324 325 328 330 332 343 307 302 272 277 289 284 285 283 287 278 281 315 329 70 280 285 325 330 321 317 318 311 299 293 289 293 304 302 288 343 343 327 290 315 314 312
268 263 261 265 270 280 294 300 306 311 317 319 322 322 323 325 324 320 317 304 290 269 270 287 285 276 264 260 273 275 264 308 298 311 320 319 302 302 285 293 304 284 320 293 288 286 300 319 336 337 328 317 311 308
258 254 268 270 272 281 287 294 299 306 311 314 316 316 318 318 321 314 305 313 301 285 301 284 295 228 256 267 257 252 259 258 240 273 317 315 275 302 278 293 298 293 301 294 305 299 312 328 334 326 322 317 312 311
253 260 263 263 267 272 281 288 293 300 306 309 311 313 313 314 315 313 299 300 290 294 284 326 321 286 288 272 256 247 251 251 256 277 263 253 261 269 277 298 296 291 293 277 292 308 328 324 325 325 326 321 321 323
257 260 258 258 261 269 278 284 293 300 305 309 310 311 312 311 310 310 297 281 268 251 295 300 303 319 264 290 270 220 233 247 254 255 227 243 264 278 277 281 267 293 317 315 307 338 321 310 321 329 324 324 326 326
256 252 252 253 259 267 274 283 294 301 306 308 305 305 304 302 306 330 303 215 234 261 295 306 311 291 279 265 266 252 247 245 226 234 239 242 252 263 274 276 288 318 333 339 305 323 314 317 321 327 328 330 333 333
244 243 245 251 258 266 276 286 295 301 306 306 303 300 298 296 295 261 286 241 202 301 286 288 285 193 283 286 270 249 223 209 217 237 234 253 267 251 247 259 305 308 302 340 328 339 322 333 328 328 338 342 341 348
237 239 244 251 259 268 278 288 297 302 307 304 301 299 294 290 289 286 278 269 244 255 251 276 281 280 229 311 325 266 226 199 224 234 240 258 262 201 252 279 294 349 340 339 340 337 325 329 330 341 347 352 348 354
234 238 243 249 257 269 281 292 301 309 311 309 305 299 293 288 245 248 257 230 231 234 268 240 274 302 347 320 304 288 180 216 225 211 239 230 231 227 274 353 9 352 352 341 339 335 338 341 338 347 352 355 349 352
230 234 241 249 259 270 283 297 310 314 315 318 317 265 227 177 260 292 248 221 208 216 235 262 275 274 315 318 309 318 253 246 238 216 215 204 213 17 12 21 352 352 350 345 345 342 344 341 342 347 350 351 352 359
232 237 243 250 258 269 284 298 310 325 5 329 284 269 305 303 286 242 243 206 195 219 219 248 257 269 278 286 287 275 310 283 267 174 237 194 64 344 359 2 350 359 349 348 343 339 342 337 343 347 352 360 8 13
235 240 245 251 257 266 279 296 314 347 303 269 281 287 291 249 237 231 238 238 211 261 210 240 264 251 283 229 245 253 263 278 260 294 259 49 358 346 349 345 349 357 351 349 346 347 348 347 355 355 2 11 23 30
237 241 245 250 255 255 262 284 310 307 314 279 271 258 222 215 235 226 216 199 199 217 216 244 280 296 197 188 237 257 252 241 276 325 38 28 333 335 337 326 344 6 358 348 346 354 353 358 9 4 12 21 28 40
231 235 241 242 237 239 247 272 296 311 272 243 235 249 230 201 231 222 251 290 213 236 262 299 289 280 291 201 229 244 227 255 42 51 18 350 338 330 330 329 348 5 1 353 349 357 356 7 17 7 13 24 31 35
234 235 234 234 238 237 249 266 274 256 262 250 227 239 231 249 284 279 266 258 228 262 287 301 282 245 268 258 226 276 258 45 43 112 354 332 335 341 337 343 354 4 359 355 355 359 2 12 25 20 14 26 33 35
220 234 248 234 233 233 256 264 247 223 240 239 237 249 269 279 269 251 223 232 247 266 286 264 251 273 261 235 249 268 306 344 34 49 352 324 344 353 350 350 354 7 6 359 1 1 3 15 27 27 22 31 39 39
215 226 245 237 220 246 239 221 223 221 238 237 248 250 264 272 283 289 278 258 264 268 265 277 264 247 278 260 266 287 288 328 345 31 1 346 337 348 351 348 353 5 11 7 359 6 4 2 18 32 34 22 36 45
211 233 241 234 220 214 213 211 235 243 241 250 259 266 271 270 274 272 270 266 253 250 256 255 266 269 267 273 277 278 303 348 295 324 346 353 344 346 350 342 348 1 16 25 354 3 8 11 15 37 43 48 32 32
220 230 235 227 199 197 223 229 223 258 244 261 269 269 267 267 268 269 270 266 259 256 261 258 255 249 251 257 272 284 290 296 263 227 297 328 331 339 328 323 330 355 10 29 29 25 23 34 34 46 53 48 50 37
224 230 237 192 185 208 241 239 220 252 269 273 274 265 264 267 269 264 256 247 241 233 232 228 239 253 275 287 297 299 288 289 307 281 270 317 325 336 314 271 292 357 8 353 73 52 29 38 55 35 68 64 43 53
227 230 217 182 204 220 259 259 241 256 274 270 276 293 282 280 272 260 253 248 247 246 237 243 255 262 269 273 273 277 275 280 281 270 287 302 317 308 301 253 247 267 317 12 26 39 71 44 92 91 85 76 67 58
196 208 198 200 220 232 248 237 243 275 276 269 278 274 268 263 263 262 260 251 247 249 250 254 256 258 262 264 265 261 260 261 264 265 268 271 278 271 261 243 217 216 227 330 37 59 69 79 68 78 112 115 107 62
199 189 202 191 210 237 252 227 243 240 246 269 256 263 266 269 265 266 259 260 264 264 262 257 256 258 258 261 258 259 255 251 250 249 252 251 248 245 243 226 229 200 195 177 145 93 103 102 101 96 69 88 125 104
203 190 207 217 210 247 216 210 227 255 260 261 275 280 280 280 280 269 268 267 266 268 260 254 246 255 260 249 248 248 245 239 239 239 237 233 232 229 220 216 222 204 193 179 181 170 153 138 117 109 133 115 112 116
184 209 211 224 217 234 239 236 234 231 247 265 275 267 272 274 270 270 272 275 274 258 221 241 289 269 268 271 261 238 232 227 224 226 221 218 224 223 221 233 212 214 192 185 182 184 184 185 167 172 138 118 136 142
214 203 199 217 206 218 234 263 257 247 242 260 269 272 292 299 274 252 263 342 7 37 41 42 312 299 279 242 258 228 216 212 208 211 209 208 209 209 207 209 201 181 194 194 190 191 189 191 198 202 207 212 214 186
235 218 205 224 224 224 256 259 272 274 269 269 275 298 296 256 260 256 270 295 280 284 305 302 279 271 248 238 245 203 198 193 194 197 199 199 202 203 196 231 179 185 183 191 197 198 202 198 201 209 211 215 221 224
239 264 238 224 217 228 246 259 261 261 259 264 254 218 243 240 267 307 293 286 293 301 303 285 232 205 212 237 218 185 182 186 193 199 200 197 203 203 194 191 179 179 177 188 198 202 207 206 203 215 215 212 213 218
235 239 257 256 222 218 219 216 240 247 260 259 250 253 252 261 275 285 294 303 310 311 258 174 177 183 193 190 177 185 188 184 179 184 195 186 185 188 186 190 188 188 195 203 202 203 206 220 223 223 224 234 233 229
244 233 242 247 229 235 234 218 238 245 247 252 261 270 277 282 302 326 335 9 86 111 140 150 154 157 153 154 154 163 166 168 171 182 186 199 186 176 178 182 185 192 200 213 221 229 227 226 236 232 227 235 228 231
246 220 230 234 258 253 253 253 257 257 263 264 263 257 265 281 329 22 41 54 83 105 112 121 130 141 120 125 134 139 133 126 105 153 140 144 139 144 160 171 179 188 199 218 226 241 254 235 236 224 220 224 243 235
208 207 212 223 244 248 167 188 202 230 279 240 270 312 346 194 54 22 36 53 69 61 61 75 84 89 100 105 98 107 115 116 115 114 110 119 133 142 147 168 176 181 193 210 226 255 261 248 233 196 204 229 225 238
196 198 224 257 205 177 181 189 206 203 26 27 31 25 32 33 32 16 22 41 67 85 77 72 79 90 90 96 99 97 99 102 109 123 141 163 173 155 137 165 172 172 177 180 176 181 168 168 181 180 187 191 193 187